www.pogodaiklimat.ru

Погода и климат >> Архив погоды >> Казахстан >> Караганда


АРХИВ ПОГОДЫ в Караганде

Время (UTC), дата Ветер
(напр.,м/с)
 
Видим.   Явления Облачность Т
(С)
Тd
(С)
f
(%)
Тe
(С)
Тes
(С)
Комфортность P
(гПа)
Po
(гПа)
Тmin
(С)
Tmax
(С)
R
(мм)
R24
(мм)
S
(см)
03 19.05 ЮВ 2 20 км ясно +9.4 -7.7 29 +9 +15 прохладно 1030.7 964.7
06 19.05 ЮВ 3 20 км ясно +13.7 -6.3 24 +13 +26 опасность
простуды
1029.6 964.6 -0.8
09 19.05 ЮВ 3 20 км ясно +15.5 -7.7 19 +15 +27 опасность
простуды
1027.9 963.4
12 19.05 В 2 20 км ясно +16.1 -6.7 20 +16 +21 прохладно 1027.3 963.0
15 19.05 В 2 20 км ясно +11.5 -2.8 37 +11 +11 прохладно 1028.0 962.7 +17.4
18 19.05 В 2 20 км ясно +7.2 -3.8 45 +6 +6 прохладно 1029.1 962.7 +17.4
21 19.05 ЮВ 2 20 км ясно +5.1 -2.9 56 +3 +3 холодно 1029.0 962.2
00 20.05 ЮВ 1 20 км ясно +4.6 -3.6 55 +4 +4 прохладно 1028.6 961.7
03 20.05 ЮВ 2 20 км 3/0
[Ci fib]
+12.3 -3.4 33 +12 +18 по сезону 1026.4 961.4
06 20.05 Ю 3 20 км 5/0
[Ci fib]
+17.9 -3.8 23 +18 +30 опасность
простуды
1023.9 960.2 +4.1
09 20.05 ЮЗ 3 20 км 9/0
[Cs]
+19.5 -3.3 21 +20 +29 тепло 1021.5 958.3
12 20.05 З 3 20 км 8/6 600 м
[Cb cap Cs]
+18.5 -2.9 23 +19 +20 по сезону 1020.4 957.0
15 20.05 штиль 0 20 км 8/0
[Ci sp]
+16.5 -0.9 30 +17 +17 тепло 1019.6 955.9 +21.0
18 20.05 штиль 0 20 км ясно +7.4 +1.7 67 +7 +7 прохладно 1021.3 955.5 +21.0
21 20.05 ЮВ 1 20 км ясно +5.8 +0.3 68 +5 +5 прохладно 1020.8 954.7
00 21.05 штиль 0 20 км 3/0
[Ac cast]
+6.4 -0.5 61 +6 +6 по сезону 1019.9 954.0
03 21.05 Ю 2 20 км ясно +16.4 -0.7 31 +17 +24 тепло 1017.9 954.3
06 21.05 В 3 20 км ясно +20.2 -2.5 21 +20 +34 опасность
простуды
1016.2 953.5 +5.8
09 21.05 Ю 2 20 км ясно +22.7 -2.4 19 +21 +36 комфорт 1014.5 952.4
12 21.05 Ю 3 20 км 4/0
[Ci fib]
+23.4 -2.1 18 +22 +25 комфорт 1012.9 951.1
15 21.05 ЮВ 2 20 км 8/0
[Ac cuf Ci sp]
+20.2 -2.5 21 +21 +21 комфорт 1013.1 950.6 +24.5
18 21.05 В 3 20 км ясно +12.0 +1.4 48 +11 +11 по сезону 1015.1 950.7 +24.5
21 21.05 ЮВ 2 20 км ясно +10.1 +0.6 52 +9 +9 по сезону 1014.7 950.0
00 22.05 ЮВ 2 20 км 8/0
[Ci fib]
+12.2 -0.2 42 +12 +12 тепло 1013.8 949.6
03 22.05 Ю 4 20 км 4/0
[Ci fib]
+18.2 +0.1 29 +18 +22 тепло 1012.6 949.7
06 22.05 Ю 5 20 км 6/0
[Ci sp]
+22.8 -2.1 19 +22 +29 комфорт 1010.3 948.5 +9.3
09 22.05 Ю 4 20 км 3/0
[Ci fib]
+25.9 -1.6 16 +24 +33 комфорт 1007.8 946.8
12 22.05 Ю 4 20 км 1/0
[Ci fib]
+26.3 -2.3 15 +24 +27 комфорт 1005.8 944.9
15 22.05 В 1 20 км 3/0
[Ci fib]
+19.9 +4.4 36 +22 +22 комфорт 1006.3 944.2 +27.2
18 22.05 ЮВ 3 20 км ясно +16.3 +1.0 35 +16 +16 тепло 1006.5 943.6 +27.2
21 22.05 ЮВ 4 20 км ясно +14.6 -0.2 36 +14 +14 тепло 1004.6 941.5
00 23.05 ЮВ 4 20 км 1/0
[Ci fib]
+15.9 +1.6 38 +15 +15 тепло 1002.7 940.0
03 23.05 ЮВ 5 20 км 8/0
[Ci sp]
+21.4 +4.2 32 +22 +25 комфорт 1001.0 939.5
06 23.05 Ю 6 20 км 6/0
[Ac cast Ci fib]
+26.3 +7.2 30 +26 +31 жарко 1000.0 939.6 +13.0
09 23.05 ЮЗ 10-16
{18}
20 км пыльный позёмок 3/0
[Ci fib]
+27.0 +5.2 25 +26 +27 жарко 1001.4 941.1
12 23.05 З 7-15
{17}
20 км 9/8 600 м
[Cb cap Ci fib]
+24.5 +6.7 32 +25 +25 комфорт 1004.5 943.4
15 23.05 ЮЗ 4
{15}
20 км ясно +21.6 +6.2 37 +22 +22 комфорт 1006.9 945.1 +28.4
18 23.05 ЮЗ 2 20 км ясно +17.0 +7.3 53 +17 +17 тепло 1009.3 946.5 +28.4
21 23.05 Ю 2 20 км ясно +14.0 +7.2 64 +14 +14 тепло 1010.7 947.1
00 24.05 Ю 2 20 км 9/3 600 м
[Cb cap Ac lent Ci fib]
+12.5 +7.5 72 +12 +12 тепло 1012.4 948.4
03 24.05 Ю 3 20 км 8/4 600 м
[Cb cap Ac trans]
+17.2 +9.4 60 +17 +19 тепло 1011.2 948.3
06 24.05 З 6-16
{16}
10 км слабый ливневой дождь 9/9 600 м
[Cb cap]
+22.6 +7.1 37 +23 +24 комфорт 1010.2 948.4 +12.5
09 24.05 З 7
{16}
20 км в посл. час ливневой дождь 8/5 600 м
[Cb cap Ac lent Ci fib]
+21.7 +6.6 38 +22 +24 комфорт 1009.9 948.0
12 24.05 З 6 20 км {ливн. осадки} 6/3 600 м
[Cb cap Ac trans]
+19.2 +9.2 52 +20 +20 тепло 1011.5 949.0
15 24.05 З 4 20 км 8/5 600 м
[Cb cap Ac trans Ci fib]
+15.5 +5.7 52 +15 +15 по сезону 1014.0 950.5 +24.4
18 24.05 СЗ 2 20 км 8/0
[Ac trans]
+12.8 +3.4 53 +12 +12 по сезону 1015.6 951.4 +24.4 0.0
21 24.05 С 2 20 км 6/0
[Ac trans]
+8.0 +2.9 70 +6 +6 прохладно 1017.9 952.5
00 25.05 С 2 20 км 4/0
[Ac trans Ci fib]
+5.2 +1.5 77 +3 +3 прохладно 1019.4 953.2
03 25.05 С 2 20 км 3/0
[Ci fib]
+10.4 +1.9 56 +9 +16 прохладно 1019.0 954.1
06 25.05 С 2 20 км 3/0
[Ci fib]
+13.8 +1.0 42 +14 +29 опасность
простуды
1018.5 954.3 +4.5
09 25.05 СЗ 2 20 км ясно +15.9 -0.9 32 +16 +31 опасность
простуды
1017.6 953.9
12 25.05 С 3 20 км ясно +17.2 -0.7 30 +17 +21 по сезону 1017.1 953.7
15 25.05 С 1 20 км ясно +14.0 +1.0 41 +15 +15 по сезону 1018.3 954.2 +18.2
18 25.05 штиль 0 20 км ясно +7.0 +1.4 68 +6 +6 холодно 1020.8 955.0 +18.2
21 25.05 штиль 0 20 км ясно +4.3 +1.3 81 +3 +3 холодно 1022.1 955.5
00 26.05 штиль 0 20 км 1/0
[Ci fib]
+4.2 +0.4 76 +3 +4 прохладно 1023.1 956.4

 

Местоположение метеостанции Караганда (Карагандинская область, Казахстан): широта 49.80 долгота 73.15 высота над уровнем моря 553 м.

В архиве по умолчанию представлена погода в Караганде за последнюю неделю. Архивные данные за месяц целиком и за предыдущие месяцы, начиная с января 2011 года, Вы можете получить, выбрав интересующий диапазон дат из раскрывающегося списка и нажав кнопку "Ввод!".

Внимание! Время в таблицах - всемирное. Для получения местного времени необходимо прибавить поправку, которая в Караганде равна 6 ч.

Смотрите также архив погоды в соседних городах и на ближайших метеорологических станциях:

Погода в Караганде-ШОС (Карагандинская область, Казахстан) (4 км)
Погода в Корнеевке (Карагандинская область, Казахстан) (11 км)
Погода в Темиртау (Карагандинская область, Казахстан) (33 км)
Погода в Топаре (Карагандинская область, Казахстан) (40 км)
Погода в Осакаровке (Карагандинская область, Казахстан) (94 км)
Погода в Молодежном (Карагандинская область, Казахстан) (107 км)
Погода в Бесобе (Карагандинская область, Казахстан) (108 км)
Погода в Жарыке (Карагандинская область, Казахстан) (108 км)
Погода в Кертинди (Карагандинская область, Казахстан) (114 км)
Погода в Киевке (Карагандинская область, Казахстан) (123 км)

Пояснения к столбцам:

Ветер - указаны скорость ветра в м/с - средняя за 10 мин, порывы в срок и между сроками (в фигурных скобках) и направление, откуда дует ветер: С - северный, СВ - северо-восточный, В - восточный, ЮВ - юго-восточный, Ю - южный, ЮЗ - юго-западный, З - западный, СЗ - северо-западный.
Видимость - горизонтальная дальность видимости в метрах или километрах. При видимости от 1 до 10 км при отсутствии осадков обычно наблюдается дымка, при ухудшении видимости до 1 км и менее - туман. В сухую погоду видимость может ухудшаться дымом, пылью или мглою.
Явления - указаны атмосферные явления, наблюдавшиеся в срок или в последний час перед сроком; фигурными скобками обозначены явления, наблюдавшиеся между сроками (за 1-3 часа до срока); квадратными скобками обозначены град или гололедные отложения с указанием их диаметра в мм.
Облачность - указаны через наклонную черту общая и нижняя облачность в баллах и высота нижней границы облаков в метрах; квадратными скобками обозначены формы облаков: Ci - перистые, Cs - перисто-слоистые, Cc - перисто-кучевые, Ac - высококучевые, As - высокослоистые, Sc - слоисто-кучевые, Ns - слоисто-дождевые, Cu - кучевые, Cb - кучево-дождевые. Подробнее классификацию облаков см. в Атласе облаков (PDF).
T - Температура воздуха - температура, измеренная на высоте 2 м над землей.
Td - Температура точки росы - температура, при понижении до которой содержащийся в воздухе водяной пар достигнет насыщения.
f - Относительная влажность воздуха - влажноcть воздуха, измеренная на высоте 2 м над землей.
Te - Эффективная температура - температура, которую ощущает одетый по сезону человек в тени. Характеристика душности погоды. При расчете учитывается влияние влажности воздуха и скорости ветра на теплоощущения человека.
Tes - Эффективная температура на солнце - температура, которую ощущает человек, с поправкой на солнечный нагрев. Характеристика знойности погоды. Зависит от высоты солнца над горизонтом, облачности и скорости ветра. Ночью, в пасмурную погоду, а также при ветре 12 м/с и более поправка равна нулю.
P - Атмосферное давление - приведенное к уровню моря атмосферное давление.
Po - Атмосферное давление - измеренное на уровне метеостанции атмосферное давление.
Tmin - Минимальная температура - минимум температуры воздуха на высоте 2 м над землей.
Tmax - Максимальная температура - максимум температуры воздуха на высоте 2 м над землей.
R - Количество осадков - Количество выпавших осадков за период времени, мм. При наведении курсора мыши на число - период времени, за который выпало указанное количество осадков.
R24 - Количество осадков - Количество выпавших осадков за 24 часа, мм.
S - Снежный покров - Высота снежного покрова, см. При наведении курсора мыши на число - состояние снежного покрова и степень покрытия местности в баллах.